Austin, MN

6:29 AM CDT on October 18, 2017 (GMT -0500)
Austin Municipal

Weather History for KAUM - February, 2013

Change the Weather History Date:

Tuesday, February 26, 2013

  Actual Average Record
Temperature  
Mean Temperature 27 °F -  
Max Temperature 33 °F 29 °F 50 °F (1998)
Min Temperature 21 °F 16 °F -14 °F (2014)
Degree Days  
Heating Degree Days 38    
Moisture  
Dew Point 23 °F    
Average Humidity 81    
Maximum Humidity 100    
Minimum Humidity 65    
Precipitation  
Precipitation 0.00 in - - ()
Sea Level Pressure  
Sea Level Pressure 29.85 in    
Wind  
Wind Speed 8 mph (NNE)    
Max Wind Speed 24 mph    
Max Gust Speed 31 mph    
Visibility 6 miles    
Events      
Averages and records for this station are not official NWS values.
T = Trace of Precipitation, MM = Missing Value Source: NWS Daily Summary

Daily Weather History Graph

Daily Weather History Graph

Search for Another Location

Airport or City:

Trip Planner

Search our weather history database for the weather conditions in past years. The results will help you decide how hot, cold, wet, or windy it might be!

Date:

Astronomy

Feb. 26, 2013 Rise Set
Actual Time 6:52 AM CST 5:56 PM CST
Civil Twilight 6:23 AM CST 6:25 PM CST
Nautical Twilight 5:50 AM CST 6:59 PM CST
Astronomical Twilight 5:17 AM CST 7:32 PM CST
Moon 7:18 PM CST (2/26) 6:52 AM CST (2/26)
Length of Visible Light 12h 01m
Length of Day
11h 04m
Full, 99% of the Moon is Illuminated
Feb 26
Full
Mar 4
Last Quarter
Mar 11
New
Mar 19
First Quarter
Mar 27
Full

Hourly Weather History & Observations

Time (CST) Temp. Windchill Dew Point Humidity Pressure Visibility Wind Dir Wind Speed Gust Speed Precip Events Conditions
12:16 AM 21.2 °F 14.9 °F 19.4 °F 93% 29.98 in 1.5 mi NNE 4.6 mph - N/A   Mist
12:35 AM 21.2 °F 14.9 °F 19.4 °F 93% 29.97 in 1.8 mi NNE 4.6 mph - N/A   Mist
12:55 AM 21.2 °F 14.9 °F 21.2 °F 100% 29.97 in 1.8 mi NE 4.6 mph - N/A   Mist
1:16 AM 23.0 °F 17.0 °F 21.2 °F 93% 29.97 in 1.8 mi NE 4.6 mph - N/A   Mist
1:35 AM 24.8 °F 17.9 °F 21.2 °F 86% 29.97 in 2.0 mi NE 5.8 mph - N/A   Clear
1:55 AM 24.8 °F 17.9 °F 21.2 °F 86% 29.96 in 2.5 mi NE 5.8 mph - N/A   Clear
2:16 AM 24.8 °F 17.9 °F 21.2 °F 86% 29.95 in 2.5 mi NE 5.8 mph - N/A   Clear
2:35 AM 23.0 °F 15.8 °F 21.2 °F 93% 29.95 in 2.5 mi NNE 5.8 mph - N/A   Clear
2:55 AM 24.8 °F 17.9 °F 21.2 °F 86% 29.93 in 2.5 mi NNE 5.8 mph - N/A   Clear
3:15 AM 24.8 °F 16.1 °F 21.2 °F 86% 29.92 in 2.5 mi NNE 8.1 mph - N/A   Clear
3:35 AM 24.8 °F 16.9 °F 21.2 °F 86% 29.91 in 2.5 mi NNE 6.9 mph - N/A   Clear
3:55 AM 24.8 °F 17.9 °F 21.2 °F 86% 29.91 in 2.5 mi NNE 5.8 mph - N/A   Clear
4:15 AM 24.8 °F 19.1 °F 21.2 °F 86% 29.90 in 3.0 mi NNE 4.6 mph - N/A   Clear
4:35 AM 24.8 °F 16.9 °F 21.2 °F 86% 29.90 in 3.0 mi NE 6.9 mph - N/A   Clear
4:55 AM 24.8 °F 16.9 °F 21.2 °F 86% 29.89 in 3.0 mi NNE 6.9 mph - N/A   Clear
5:15 AM 24.8 °F 16.9 °F 21.2 °F 86% 29.90 in 3.0 mi NE 6.9 mph - N/A   Clear
5:35 AM 24.8 °F 16.9 °F 21.2 °F 86% 29.90 in 3.0 mi NE 6.9 mph - N/A   Clear
5:55 AM 23.0 °F 18.4 °F 21.2 °F 93% 29.90 in 3.0 mi NNE 3.5 mph - N/A   Clear
6:15 AM 23.0 °F 15.8 °F 21.2 °F 93% 29.90 in 3.0 mi NE 5.8 mph - N/A   Clear
6:35 AM 23.0 °F 17.0 °F 21.2 °F 93% 29.90 in 3.0 mi NNE 4.6 mph - N/A   Clear
6:55 AM 23.0 °F 13.9 °F 21.2 °F 93% 29.89 in 3.0 mi NNE 8.1 mph - N/A   Clear
7:15 AM 23.0 °F 12.4 °F 21.2 °F 93% 29.89 in 2.5 mi NNE 10.4 mph - N/A   Clear
7:35 AM 24.8 °F 15.3 °F 21.2 °F 86% 29.89 in 2.5 mi NNE 9.2 mph - N/A   Clear
7:55 AM 24.8 °F 14.0 °F 21.2 °F 86% 29.88 in 3.0 mi NNE 11.5 mph - N/A   Clear
8:15 AM 24.8 °F 14.6 °F 21.2 °F 86% 29.89 in 3.0 mi NE 10.4 mph - N/A   Clear
8:36 AM 24.8 °F 16.1 °F 21.2 °F 86% 29.89 in 3.0 mi NNE 8.1 mph - N/A   Clear
8:55 AM 24.8 °F 15.3 °F 21.2 °F 86% 29.90 in 3.0 mi NE 9.2 mph - N/A   Clear
9:15 AM 24.8 °F 14.6 °F 21.2 °F 86% 29.90 in 3.0 mi NNE 10.4 mph - N/A   Clear
9:36 AM 26.6 °F 16.8 °F 21.2 °F 80% 29.90 in 3.0 mi NNE 10.4 mph - N/A   Clear
9:55 AM 26.6 °F 16.8 °F 21.2 °F 80% 29.89 in 4.0 mi NNE 10.4 mph - N/A   Haze
10:15 AM 28.4 °F 19.1 °F 21.2 °F 74% 29.88 in 4.0 mi NE 10.4 mph 17.3 mph N/A   Haze
10:35 AM 28.4 °F 18.5 °F 21.2 °F 74% 29.88 in 4.0 mi NE 11.5 mph 17.3 mph N/A   Haze
10:56 AM 30.2 °F 20.8 °F 23.0 °F 75% 29.86 in 5.0 mi NE 11.5 mph 16.1 mph N/A   Haze
11:15 AM 30.2 °F 20.2 °F 23.0 °F 75% 29.85 in 5.0 mi NE 12.7 mph 17.3 mph N/A   Haze
11:35 AM 32.0 °F 22.1 °F 23.0 °F 69% 29.85 in 7.0 mi NE 13.8 mph 18.4 mph N/A   Clear
11:55 AM 32.0 °F 22.5 °F 23.0 °F 69% 29.85 in 7.0 mi NE 12.7 mph 19.6 mph N/A   Clear
12:15 PM 33.8 °F 23.9 °F 23.0 °F 65% 29.83 in 10.0 mi NE 15.0 mph 21.9 mph N/A   Clear
12:35 PM 33.8 °F 24.8 °F 23.0 °F 65% 29.83 in 10.0 mi NE 12.7 mph 19.6 mph N/A   Clear
12:56 PM 33.8 °F 24.3 °F 24.8 °F 70% 29.81 in 7.0 mi NE 13.8 mph 25.3 mph N/A   Clear
1:15 PM 33.8 °F 25.3 °F 24.8 °F 70% 29.81 in 10.0 mi NE 11.5 mph 18.4 mph N/A   Clear
1:35 PM 33.8 °F 24.8 °F 24.8 °F 70% 29.81 in 10.0 mi North 12.7 mph 19.6 mph N/A   Clear
1:55 PM 33.8 °F 23.5 °F 24.8 °F 70% 29.79 in 10.0 mi North 16.1 mph 21.9 mph N/A   Clear
2:15 PM 33.8 °F 23.9 °F 24.8 °F 70% 29.79 in 10.0 mi NNE 15.0 mph 21.9 mph N/A   Clear
2:35 PM 33.8 °F 23.9 °F 24.8 °F 70% 29.78 in 10.0 mi NNE 15.0 mph - N/A   Clear
2:55 PM 33.8 °F 24.8 °F 24.8 °F 70% 29.78 in 7.0 mi North 12.7 mph 18.4 mph N/A   Scattered Clouds
3:15 PM 33.8 °F 23.5 °F 24.8 °F 70% 29.78 in 10.0 mi NNE 16.1 mph 21.9 mph N/A   Scattered Clouds
3:35 PM 33.8 °F 21.3 °F 24.8 °F 70% 29.78 in 10.0 mi NNE 24.2 mph 31.1 mph N/A   Mostly Cloudy
3:55 PM 32.0 °F 20.1 °F 24.8 °F 75% 29.78 in 10.0 mi NNE 19.6 mph 31.1 mph N/A   Mostly Cloudy
4:15 PM 32.0 °F 20.8 °F 24.8 °F 75% 29.78 in 10.0 mi NNE 17.3 mph 25.3 mph N/A   Mostly Cloudy
4:36 PM 32.0 °F 22.5 °F 24.8 °F 75% 29.79 in 10.0 mi NNE 12.7 mph 24.2 mph N/A   Scattered Clouds
4:55 PM 32.0 °F 22.1 °F 24.8 °F 75% 29.79 in 10.0 mi North 13.8 mph 23.0 mph N/A   Clear
5:15 PM 32.0 °F 22.5 °F 24.8 °F 75% 29.79 in 10.0 mi NNE 12.7 mph 18.4 mph N/A   Clear
5:35 PM 30.2 °F 20.2 °F 24.8 °F 80% 29.79 in 10.0 mi North 12.7 mph 18.4 mph N/A   Clear
5:55 PM 30.2 °F 20.8 °F 24.8 °F 80% 29.79 in 10.0 mi North 11.5 mph 18.4 mph N/A   Clear
6:15 PM 30.2 °F 20.8 °F 24.8 °F 80% 29.79 in 10.0 mi North 11.5 mph 19.6 mph N/A   Clear
6:35 PM 30.2 °F 20.8 °F 24.8 °F 80% 29.79 in 10.0 mi North 11.5 mph 18.4 mph N/A   Clear
6:55 PM 30.2 °F 21.3 °F 24.8 °F 80% 29.79 in 10.0 mi North 10.4 mph 19.6 mph N/A   Clear
7:15 PM 30.2 °F 20.2 °F 24.8 °F 80% 29.79 in 10.0 mi North 12.7 mph 18.4 mph N/A   Clear
7:35 PM 30.2 °F 21.3 °F 24.8 °F 80% 29.79 in 10.0 mi North 10.4 mph 18.4 mph N/A   Clear
7:55 PM 30.2 °F 22.6 °F 24.8 °F 80% 29.80 in 10.0 mi North 8.1 mph - N/A   Clear
8:15 PM 30.2 °F 22.6 °F 24.8 °F 80% 29.80 in 10.0 mi North 8.1 mph - N/A   Clear
8:35 PM 30.2 °F 23.4 °F 24.8 °F 80% 29.80 in 10.0 mi North 6.9 mph - N/A   Clear
8:55 PM 30.2 °F 25.4 °F 24.8 °F 80% 29.80 in 10.0 mi North 4.6 mph - N/A   Clear
9:15 PM 30.2 °F 24.3 °F 24.8 °F 80% 29.80 in 10.0 mi North 5.8 mph - N/A   Clear
9:35 PM 28.4 °F 20.4 °F 24.8 °F 86% 29.79 in 10.0 mi North 8.1 mph - N/A   Clear
9:55 PM 30.2 °F 25.4 °F 24.8 °F 80% 29.79 in 10.0 mi North 4.6 mph - N/A   Clear
10:16 PM 30.2 °F 24.3 °F 24.8 °F 80% 29.79 in 10.0 mi North 5.8 mph - N/A   Clear
10:35 PM 30.2 °F 23.4 °F 24.8 °F 80% 29.79 in 10.0 mi North 6.9 mph - N/A   Clear
10:55 PM 30.2 °F 23.4 °F 24.8 °F 80% 29.79 in 10.0 mi North 6.9 mph - N/A   Mostly Cloudy
11:16 PM 30.2 °F 22.6 °F 24.8 °F 80% 29.79 in 10.0 mi North 8.1 mph - N/A   Mostly Cloudy
11:35 PM 30.2 °F 23.4 °F 24.8 °F 80% 29.78 in 10.0 mi North 6.9 mph - N/A   Scattered Clouds
11:55 PM 30.2 °F 23.4 °F 24.8 °F 80% 29.78 in 10.0 mi North 6.9 mph - N/A   Scattered Clouds